When you browse on this site, cookies collect data to enhance your experience and personalize the content and advertising you see.
Visit our Privacy Policy to learn more. By continuing to use the site, you agree to this use of cookies and data.
  • In Hungary
  • List of Countries
  • For 7 days
  • Water Temperature
  • Satellite Maps
  • Weather Map
  • News
  • Weather Widgets
  • user-avatar
    Login

    Hourly Weather Potots'ke

    Today, 20 July, Saturday

    Time Temperature Precipitation Wind Pressure Humidity
    00:00 +19°C° 0 mm 1 mps 750 mmHg 63%
    01:00 +19°C° 0 mm 1 mps 750 mmHg 65%
    02:00 +18°C° 0 mm 1 mps 750 mmHg 62%
    03:00 +18°C° 0 mm 1 mps 750 mmHg 63%
    04:00 +19°C° 0 mm 1 mps 750 mmHg 64%
    05:00 +19°C° 0 mm 1 mps 751 mmHg 65%
    06:00 +21°C° 0 mm 1 mps 751 mmHg 60%
    07:00 +23°C° 0 mm 1 mps 751 mmHg 54%
    08:00 +25°C° 0 mm 1 mps 751 mmHg 49%
    09:00 +26°C° 0 mm 1 mps 751 mmHg 45%
    10:00 +27°C° 0 mm 1 mps 751 mmHg 41%
    11:00 +28°C° 0 mm 2 mps 751 mmHg 37%
    12:00 +29°C° 0 mm 2 mps 751 mmHg 36%
    13:00 +29°C° 0 mm 2 mps 751 mmHg 34%
    14:00 +30°C° 0 mm 2 mps 750 mmHg 33%
    15:00 +29°C° 0 mm 2 mps 750 mmHg 35%
    16:00 +29°C° 0 mm 2 mps 751 mmHg 36%
    17:00 +29°C° 0 mm 2 mps 751 mmHg 38%
    18:00 +27°C° 0 mm 2 mps 751 mmHg 44%
    19:00 +25°C° 0 mm 2 mps 751 mmHg 50%
    20:00 +22°C° 0 mm 3 mps 751 mmHg 56%
    21:00 +23°C° 0 mm 2 mps 751 mmHg 57%
    22:00 +21°C° 0 mm 2 mps 751 mmHg 58%
    23:00 +20°C° 0 mm 2 mps 751 mmHg 59%

    Tomorrow, 21 July, Sunday

    Time Temperature Precipitation Wind Pressure Humidity
    00:00 +21°C° 0 mm 1 mps 751 mmHg 60%
    01:00 +21°C° 0 mm 1 mps 751 mmHg 60%
    02:00 +20°C° 0 mm 1 mps 751 mmHg 60%
    03:00 +20°C° 0 mm 1 mps 751 mmHg 61%
    04:00 +20°C° 0 mm 1 mps 751 mmHg 62%
    05:00 +20°C° 0 mm 1 mps 751 mmHg 63%
    06:00 +22°C° 0 mm 1 mps 751 mmHg 59%
    07:00 +23°C° 0 mm 1 mps 751 mmHg 55%
    08:00 +25°C° 0 mm 1 mps 751 mmHg 52%
    09:00 +26°C° 0 mm 2 mps 751 mmHg 47%
    10:00 +28°C° 0 mm 2 mps 751 mmHg 42%
    11:00 +30°C° 0 mm 2 mps 751 mmHg 37%
    12:00 +30°C° 0 mm 2 mps 750 mmHg 36%
    13:00 +30°C° 0 mm 1 mps 750 mmHg 35%
    14:00 +31°C° 0 mm 1 mps 749 mmHg 34%
    15:00 +30°C° 0 mm 1 mps 749 mmHg 36%
    16:00 +30°C° 0 mm 1 mps 749 mmHg 38%
    17:00 +29°C° 0 mm 1 mps 749 mmHg 40%
    18:00 +28°C° 0 mm 1 mps 749 mmHg 43%
    19:00 +27°C° 0 mm 1 mps 749 mmHg 46%
    20:00 +25°C° 0 mm 2 mps 749 mmHg 48%
    21:00 +25°C° 0 mm 1 mps 749 mmHg 51%
    22:00 +24°C° 0 mm 1 mps 749 mmHg 54%
    23:00 +23°C° 0 mm 1 mps 750 mmHg 56%

    Day after tomorrow, 22 July, Monday

    Time Temperature Precipitation Wind Pressure Humidity
    00:00 +23°C° 0 mm 1 mps 749 mmHg 59%
    01:00 +22°C° 0 mm 1 mps 749 mmHg 61%
    02:00 +22°C° 0 mm 1 mps 749 mmHg 63%
    03:00 +22°C° 0 mm 1 mps 749 mmHg 64%
    04:00 +22°C° 0 mm 1 mps 749 mmHg 65%
    05:00 +22°C° 0 mm 1 mps 749 mmHg 66%
    06:00 +24°C° 0 mm 1 mps 749 mmHg 60%
    07:00 +26°C° 0 mm 1 mps 749 mmHg 55%
    08:00 +28°C° 0 mm 2 mps 748 mmHg 49%
    09:00 +29°C° 0 mm 3 mps 748 mmHg 44%
    10:00 +31°C° 0 mm 3 mps 748 mmHg 40%
    11:00 +33°C° 0 mm 4 mps 748 mmHg 35%
    12:00 +33°C° 0 mm 4 mps 748 mmHg 35%
    13:00 +33°C° 0 mm 3 mps 748 mmHg 35%
    14:00 +33°C° 0 mm 3 mps 747 mmHg 35%
    15:00 +33°C° 0 mm 3 mps 747 mmHg 37%
    16:00 +32°C° 0 mm 2 mps 747 mmHg 39%
    17:00 +31°C° 0 mm 2 mps 746 mmHg 40%
    18:00 +28°C° 1.8 mm 3 mps 746 mmHg 56%
    19:00 +25°C° 1.8 mm 4 mps 746 mmHg 71%
    20:00 +20°C° 1.8 mm 5 mps 746 mmHg 87%
    21:00 +20°C° 0.6 mm 4 mps 746 mmHg 87%
    22:00 +20°C° 0.6 mm 2 mps 746 mmHg 87%
    23:00 +21°C° 0.6 mm 1 mps 746 mmHg 86%

    23 July, Tuesday

    Time Temperature Precipitation Wind Pressure Humidity
    00:00 +20°C° 0.3 mm 2 mps 746 mmHg 88%
    01:00 +20°C° 0.3 mm 2 mps 746 mmHg 89%
    02:00 +20°C° 0.3 mm 3 mps 746 mmHg 90%
    03:00 +20°C° 0.5 mm 3 mps 746 mmHg 90%
    04:00 +20°C° 0.5 mm 2 mps 746 mmHg 91%
    05:00 +20°C° 0.5 mm 2 mps 745 mmHg 91%
    06:00 +20°C° 0.7 mm 2 mps 745 mmHg 90%
    07:00 +20°C° 0.7 mm 1 mps 745 mmHg 89%
    08:00 +20°C° 0.7 mm 1 mps 745 mmHg 88%
    09:00 +21°C° 0.2 mm 1 mps 745 mmHg 84%
    10:00 +21°C° 0.2 mm 1 mps 746 mmHg 80%
    11:00 +22°C° 0.2 mm 1 mps 746 mmHg 76%
    12:00 +23°C° 0.5 mm 2 mps 746 mmHg 72%
    13:00 +23°C° 0.5 mm 2 mps 745 mmHg 68%
    14:00 +24°C° 0.5 mm 2 mps 745 mmHg 64%
    15:00 +24°C° 0.5 mm 2 mps 745 mmHg 63%
    16:00 +25°C° 0.5 mm 2 mps 745 mmHg 62%
    17:00 +25°C° 0.5 mm 1 mps 745 mmHg 61%
    18:00 +24°C° 1.4 mm 2 mps 745 mmHg 68%
    19:00 +21°C° 1.4 mm 2 mps 745 mmHg 74%
    20:00 +20°C° 1.4 mm 2 mps 745 mmHg 80%
    21:00 +19°C° 0.8 mm 2 mps 745 mmHg 83%
    22:00 +18°C° 0.8 mm 2 mps 745 mmHg 85%
    23:00 +19°C° 0.8 mm 1 mps 745 mmHg 88%

    24 July, Wednesday

    Time Temperature Precipitation Wind Pressure Humidity
    00:00 +18°C° 0 mm 1 mps 745 mmHg 89%
    01:00 +18°C° 0 mm 1 mps 745 mmHg 90%
    02:00 +18°C° 0 mm 1 mps 745 mmHg 91%
    03:00 +18°C° 0 mm 1 mps 745 mmHg 91%
    04:00 +18°C° 0 mm 1 mps 745 mmHg 92%
    05:00 +17°C° 0 mm 2 mps 744 mmHg 92%
    06:00 +18°C° 0 mm 2 mps 744 mmHg 85%
    07:00 +20°C° 0 mm 2 mps 745 mmHg 79%
    08:00 +21°C° 0 mm 2 mps 745 mmHg 72%
    09:00 +24°C° 0.3 mm 2 mps 744 mmHg 66%
    10:00 +25°C° 0.3 mm 2 mps 744 mmHg 60%
    11:00 +26°C° 0.3 mm 3 mps 744 mmHg 54%
    12:00 +27°C° 0.1 mm 2 mps 744 mmHg 50%
    13:00 +28°C° 0.1 mm 2 mps 744 mmHg 45%
    14:00 +29°C° 0.1 mm 2 mps 744 mmHg 41%
    15:00 +28°C° 0 mm 2 mps 744 mmHg 42%
    16:00 +28°C° 0 mm 2 mps 744 mmHg 43%
    17:00 +28°C° 0 mm 1 mps 744 mmHg 44%
    18:00 +26°C° 0.1 mm 2 mps 744 mmHg 54%
    19:00 +24°C° 0.1 mm 3 mps 744 mmHg 63%
    20:00 +21°C° 0.1 mm 4 mps 744 mmHg 72%
    21:00 +20°C° 0.4 mm 3 mps 744 mmHg 76%
    22:00 +19°C° 0.4 mm 2 mps 744 mmHg 80%
    23:00 +20°C° 0.4 mm 1 mps 745 mmHg 84%

    25 July, Thursday

    Time Temperature Precipitation Wind Pressure Humidity
    00:00 +18°C° 0.5 mm 2 mps 745 mmHg 84%
    01:00 +18°C° 0.5 mm 2 mps 745 mmHg 85%
    02:00 +18°C° 0.5 mm 2 mps 745 mmHg 86%
    03:00 +18°C° 0.8 mm 2 mps 745 mmHg 88%
    04:00 +18°C° 0.8 mm 2 mps 745 mmHg 89%
    05:00 +17°C° 0.8 mm 3 mps 745 mmHg 91%
    06:00 +19°C° 0.3 mm 3 mps 745 mmHg 84%
    07:00 +21°C° 0.3 mm 3 mps 745 mmHg 78%
    08:00 +24°C° 0.3 mm 3 mps 745 mmHg 71%
    09:00 +25°C° 0.4 mm 3 mps 746 mmHg 66%
    10:00 +26°C° 0.4 mm 4 mps 746 mmHg 60%
    11:00 +27°C° 0.4 mm 4 mps 746 mmHg 55%
    12:00 +27°C° 0.4 mm 4 mps 745 mmHg 55%
    13:00 +27°C° 0.4 mm 4 mps 745 mmHg 55%
    14:00 +27°C° 0.4 mm 5 mps 745 mmHg 56%
    15:00 +26°C° 0.1 mm 5 mps 745 mmHg 62%
    16:00 +23°C° 0.1 mm 6 mps 745 mmHg 69%
    17:00 +22°C° 0.1 mm 6 mps 745 mmHg 75%
    18:00 +21°C° 0 mm 5 mps 745 mmHg 79%
    19:00 +20°C° 0 mm 4 mps 745 mmHg 83%
    20:00 +19°C° 0 mm 4 mps 745 mmHg 87%
    21:00 +19°C° 0 mm 4 mps 745 mmHg 88%
    22:00 +19°C° 0 mm 4 mps 745 mmHg 90%
    23:00 +19°C° 0 mm 4 mps 745 mmHg 91%
    Show more